This demonstration page uses our WeatherBlox Daily Observations layout. Learn more.

Left ArrowRight Arrow

39.92423, -83.80882

Hourly Observations for June 28, 2015

Temp ( °F °C ) Dew Point ( °F °C ) Humidity (%) Winds ( mph kmh ) Pressure ( in mb ) Visibility ( mi km ) Precip ( " mm )
12:35 am 00:35 Cloudy 59 15 55 13 88 88 WNW 14 22 29.85 1011 9 14.48406 0 0
12:56 am 00:56 Mostly Cloudy 60 15.5 56 13.3 87 87 W 14 22 29.85 1011 9 14.48406 0 0
1:56 am 01:56 Mostly Cloudy 60 15.5 56 13.3 87 87 W 12 19 29.83 1010 9 14.48406 0 0
2:56 am 02:56 Mostly Cloudy 61 16.1 55 12.7 80 80 W 14 22 29.82 1010 10 16.0934 0 0
3:56 am 03:56 Partly Cloudy 60 15.5 55 12.7 84 84 W 12 19 29.82 1010 9 14.48406 0 0
4:56 am 04:56 Clear 59 15 55 12.7 86 86 W 13 20 29.83 1010 9 14.48406 0 0
5:56 am 05:56 Clear 57 13.8 54 12.2 90 90 W 12 19 29.86 1011 9 14.48406 0 0
6:56 am 06:56 Sunny 57 13.8 54 12.2 90 90 W 13 20 29.88 1012 8 12.87472 0 0
7:56 am 07:56 Sunny 59 15 55 12.7 86 86 WNW 15 24 29.9 1012 8 12.87472 0 0
8:56 am 08:56 Sunny 62 16.6 56 13.3 81 81 WNW 10 17 29.91 1013 9 14.48406 0 0
9:56 am 09:56 Mostly Sunny 64 17.7 56 13.3 76 76 NW 14 22 29.92 1013 9 14.48406 0 0
10:56 am 10:56 Mostly Sunny 67 19.4 57 13.8 70 70 WNW 14 22 29.93 1014 8 12.87472 0 0
11:56 am 11:56 Mostly Sunny 69 20.5 57 13.8 66 66 NW 14 22 29.93 1014 9 14.48406 0 0
12:56 pm 12:56 Mostly Sunny 72 22.2 57 13.8 59 59 NW 14 22 29.93 1014 9 14.48406 0 0
1:56 pm 13:56 Mostly Sunny 74 23.3 57 13.8 55 55 NNW 17 28 29.92 1013 9 14.48406 0 0
2:56 pm 14:56 Mostly Cloudy 73 22.7 56 13.3 55 55 NW 12 19 29.94 1014 9 14.48406 0 0
3:56 pm 15:56 Partly Cloudy 75 23.8 55 12.7 50 50 NW 10 17 29.93 1014 9 14.48406 0 0
4:56 pm 16:56 Mostly Sunny 77 25 56 13.3 48 48 WNW 10 17 29.93 1014 9 14.48406 0 0
5:56 pm 17:56 Sunny 76 24.4 53 11.6 45 45 NNW 7 11 29.92 1013 9 14.48406 0 0
6:56 pm 18:56 Sunny 74 23.3 55 12.7 51 51 NNW 5 7 29.93 1013 9 14.48406 0 0
7:56 pm 19:56 Sunny 73 22.7 58 14.4 60 60 Calm 29.93 1014 9 14.48406 0 0
9:56 pm 21:56 Clear 65 18.3 59 15 81 81 SSE 5 7 29.93 1014 10 16.0934 0 0
10:56 pm 22:56 Clear 66 18.8 56 13.3 71 71 S 6 9 29.94 1014 10 16.0934 0 0
11:56 pm 23:56 Clear 64 17.7 59 15 84 84 SSE 5 7 29.93 1014 10 16.0934 0 0

Powered by AerisWeather